Lexington Weather

Lexington, Massachusetts, USA

77°F
7/25/2024 11:32am 
  • Lexington Conditions: Mostly cloudy
  • Temperature: 76.6°F / 24.8°CWarmer 1.2°F than last hour.
  • Dew Point: 72.1°FIncreased 0.5°Fsince last hour.
  • Relative Humidity: 86%Decreased 2.0% since last hour.
  • Wind: Wind from WSW WSW Calm, 10-min avg: 2 mph, gust: 7 mph
  • Barometer: 29.95 inFalling 0.02  inHg/hr Falling Slowly
  • Visibility: 10 miles
  • Rain Today: 0.00 in
  •   

Regional Weather Roundup
for Boston, MA

        
000
ASUS41 KBOX 221110
RWRBOX

REGIONAL WEATHER ROUNDUP
NATIONAL WEATHER SERVICE BOSTON/NORTON MA
700 AM EDT MON JUL 22 2024

NOTE:  "FAIR" INDICATES FEW OR NO CLOUDS BELOW 12,000 FEET WITH NO 
SIGNIFICANT WEATHER AND/OR OBSTRUCTIONS TO VISIBILITY.

MAZALL-221200-
EASTERN MASSACHUSETTS
  
CITY           SKY/WX    TMP DP  RH WIND       PRES   REMARKS
BOSTON         MOSUNNY   70  60  70 N3        30.09R                  
BEVERLY        SUNNY     65  61  87 CALM      30.08R                  
LAWRENCE       SUNNY     64  60  87 CALM      30.11R                  
BEDFORD        SUNNY     64  60  87 CALM      30.08R                  
NORWOOD        SUNNY     69  67  93 CALM      30.09R                  
MARSHFIELD     SUNNY     68  64  88 CALM      30.09R                  
PLYMOUTH       SUNNY     71  66  84 NE3       30.08R                  
TAUNTON        SUNNY     70  65  84 CALM      30.08R                  
NEW BEDFORD    SUNNY     70  67  90 CALM      30.07S                  
$$

MAZALL-221200-
CAPE COD AND THE ISLANDS
  
CITY           SKY/WX    TMP DP  RH WIND       PRES   REMARKS
FALMOUTH       SUNNY     68  64  88 CALM      30.09R                  
HYANNIS        SUNNY     70  69  97 CALM      30.07R                  
CHATHAM        SUNNY     73  69  87 E3        30.09R                  
PROVINCETOWN   SUNNY     70  69  97 CALM      30.10R                  
NANTUCKET      SUNNY     72  71  97 W6        30.08R                  
MARTHAS VNYRD  SUNNY     71  67  87 SW3       30.08R                  
$$
 
MAZALL-221200-
CENTRAL AND WESTERN MASSACHUSETTS
  
CITY           SKY/WX    TMP DP  RH WIND       PRES   REMARKS
WORCESTER      MOSUNNY   69  54  58 NE7       30.12R                  
FITCHBURG      SUNNY    N/A N/A N/A N3        30.11R                  
ORANGE         SUNNY     62  60  93 CALM      30.12R                  
SPRINGFIELD    SUNNY     65  63  94 CALM      30.06S                  
WESTFIELD      MOSUNNY   66  63  90 N3        30.10R                  
NORTH ADAMS    CLOUDY    62  62 100 CALM      30.12R                  
PITTSFIELD     FOG       62  61  96 CALM      30.12R VSB<1/4          
$$
 
RIZALL-221200-
RHODE ISLAND
  
CITY           SKY/WX    TMP DP  RH WIND       PRES   REMARKS
PROVIDENCE     PTSUNNY   71  65  81 N3        30.09R                  
NEWPORT        SUNNY     71  66  84 CALM      30.08R                  
BLOCK ISLAND   MOSUNNY   71  68  90 SW3         N/A                   
SMITHFIELD     SUNNY     69  66  90 NE6       30.10S                  
WESTERLY       MOSUNNY   70  67  90 CALM      30.08R                  
$$
 
CTZALL-221200-
CONNECTICUT
  
CITY           SKY/WX    TMP DP  RH WIND       PRES   REMARKS
BRADLEY INTL   PTSUNNY   69  64  84 NW5       30.09R                  
HARTFORD       MOSUNNY   70  66  87 N5        30.08R                  
PLAINVILLE     MOSUNNY   67  66  94 CALM      30.09R                  
BRIDGEPORT     MOSUNNY   73  68  84 N3        30.08R                  
DANBURY        MOSUNNY   68  65  90 CALM      30.10R                  
GROTON         MOSUNNY   73  70  90 N3        30.07S                  
NEW HAVEN      MOSUNNY   73  71  93 CALM      30.08R                  
CHESTER        MOSUNNY   70  70 100 CALM      30.09S                  
MERIDEN        MOSUNNY   69  64  84 CALM      30.08S                  
WILLIMANTIC    MOSUNNY   66  65  96 CALM      30.10R                  
OXFORD         MOSUNNY   67  65  93 CALM      30.11R                  
$$

MEZ002-015-021-024-NHZ003-005-008-011-012-014-VTZ005-008-221200-
NORTHERN NEW ENGLAND
  
CITY           SKY/WX    TMP DP  RH WIND       PRES   REMARKS
PORTLAND ME    MOSUNNY   61  57  87 CALM      30.09S                  
BANGOR ME      SUNNY     59  52  77 SW3       30.07R                  
CONCORD NH     SUNNY     60  57  89 CALM      30.10S                  
MANCHESTER NH  MOSUNNY   65  58  78 CALM      30.09R                  
NASHUA NH      SUNNY     63  63 100 CALM      30.11R                  
PORTSMOUTH NH  PTSUNNY   65  59  82 NW3       30.09R                  
JAFFREY NH     SUNNY     59  55  87 CALM      30.13R                  
KEENE NH       PTSUNNY   57  57 100 CALM      30.12R FOG              
BURLINGTON VT  MOSUNNY   61  56  83 CALM      30.09R                  
MT. WASHINGTON FOG       43  43 100 W41         N/A  VSB 1/16WCI  31  
$$

NYZ052-076-221200-
EASTERN NEW YORK
  
CITY           SKY/WX    TMP DP  RH WIND       PRES   REMARKS
ALBANY         PTSUNNY   66  63  90 N5        30.10R                  
NEW YORK CITY  PTSUNNY   76  66  71 SW5       30.06R                  
$$
 
ANZALL-221200-
MARINE OBSERVATIONS
  
STATION/POSITION TIME  TEMP    WIND        PRES    VSBY  WAVE
                       AIR SEA DIR/SP/G                  HT/PER
                 (UTC) (F)     (DEG/KT/KT) (MB)    (MI)  (FT/S)
BOSTON BUOY      1050   65 65   20/  4/  6 1019.1R         1/11
BUZZARDS BAY     1000   70     240/  9/  9 1018.5R
NANTUCKET SOUND  1050   75 76  300/  4/  4 1018.0R         0
MASS BAY-STELLWA 0904   64 61   10/  6/  8 1018.5R  1 7/8  1/ 8
ISLE OF SHOALS   1000   67      10/  6/  6 1018.0R
S OF BLOCK IS    1056      72                N/A           3/ 8
$$

......................KEY.........................
  SKY/WX - SKY CONDITION/PRESENT WEATHER
  TMP    - TEMPERATURE IN FAHRENHEIT
  DWPT   - DEWPOINT IN FAHRENHEIT
  RH     - RELATIVE HUMIDITY IN PERCENT
  WIND   - DIRECTION AND SPEED IN MPH
  PRES   - MEAN SEA LEVEL PRESSURE IN INCHES OF HG
  WCI    - WIND CHILL INDEX
  VSB    - VISIBILITY IN MILES
  HX     - HEAT INDEX
  TC     - TEMPERATURE IN CELSIUS
  VRB    - VARIABLE WIND DIRECTION
  N/A    - NOT AVAILABLE
  
      

Other recent Regional Weather Roundups

Thu Jul 25, 11:10am EDT

Thu Jul 25, 10:10am EDT

Thu Jul 25, 9:10am EDT

Thu Jul 25, 8:10am EDT

Thu Jul 25, 7:10am EDT

Thu Jul 25, 6:10am EDT

Thu Jul 25, 5:10am EDT

Thu Jul 25, 4:10am EDT

Thu Jul 25, 3:10am EDT

Thu Jul 25, 2:10am EDT

Thu Jul 25, 1:10am EDT

Thu Jul 25, 12:10am EDT

Wed Jul 24, 11:10pm EDT

Wed Jul 24, 10:10pm EDT

Wed Jul 24, 9:10pm EDT

Wed Jul 24, 8:10pm EDT

Wed Jul 24, 7:10pm EDT

Wed Jul 24, 6:10pm EDT

Wed Jul 24, 5:10pm EDT

Wed Jul 24, 4:10pm EDT

Wed Jul 24, 3:10pm EDT

Wed Jul 24, 2:10pm EDT

Wed Jul 24, 1:10pm EDT

Wed Jul 24, 12:10pm EDT

Wed Jul 24, 11:10am EDT

Wed Jul 24, 10:10am EDT

Wed Jul 24, 9:10am EDT

Wed Jul 24, 8:10am EDT

Wed Jul 24, 7:10am EDT

Wed Jul 24, 6:10am EDT

Wed Jul 24, 5:10am EDT

Wed Jul 24, 4:10am EDT

Wed Jul 24, 3:10am EDT

Wed Jul 24, 2:10am EDT

Wed Jul 24, 1:10am EDT

Wed Jul 24, 12:10am EDT

Tue Jul 23, 11:10pm EDT

Tue Jul 23, 10:10pm EDT

Tue Jul 23, 9:10pm EDT

Tue Jul 23, 8:10pm EDT

Tue Jul 23, 7:10pm EDT

Tue Jul 23, 6:10pm EDT

Tue Jul 23, 5:10pm EDT

Tue Jul 23, 4:10pm EDT

Tue Jul 23, 3:10pm EDT

Tue Jul 23, 2:10pm EDT

Tue Jul 23, 1:10pm EDT

Tue Jul 23, 12:10pm EDT

Tue Jul 23, 11:10am EDT

Tue Jul 23, 10:10am EDT

Tue Jul 23, 10:10am EDT

Tue Jul 23, 9:10am EDT

Tue Jul 23, 8:10am EDT

Tue Jul 23, 7:10am EDT

Tue Jul 23, 6:10am EDT

Tue Jul 23, 5:10am EDT

Tue Jul 23, 4:10am EDT

Tue Jul 23, 3:10am EDT

Tue Jul 23, 2:10am EDT

Tue Jul 23, 1:10am EDT

Tue Jul 23, 12:10am EDT

Mon Jul 22, 11:10pm EDT

Mon Jul 22, 10:10pm EDT

Mon Jul 22, 9:10pm EDT

Mon Jul 22, 8:10pm EDT

Mon Jul 22, 7:10pm EDT

Mon Jul 22, 6:10pm EDT

Mon Jul 22, 5:10pm EDT

Mon Jul 22, 4:10pm EDT

Mon Jul 22, 3:10pm EDT

Mon Jul 22, 2:10pm EDT

Mon Jul 22, 1:10pm EDT

Mon Jul 22, 12:10pm EDT

Mon Jul 22, 11:10am EDT

Mon Jul 22, 10:10am EDT

Mon Jul 22, 9:10am EDT

Mon Jul 22, 8:10am EDT

Mon Jul 22, 6:10am EDT

Mon Jul 22, 5:10am EDT

Mon Jul 22, 4:10am EDT

Mon Jul 22, 3:10am EDT

Mon Jul 22, 2:10am EDT

Mon Jul 22, 1:10am EDT

Mon Jul 22, 12:10am EDT

Sun Jul 21, 11:10pm EDT

Sun Jul 21, 10:10pm EDT

Sun Jul 21, 9:10pm EDT

Sun Jul 21, 8:10pm EDT

Sun Jul 21, 7:10pm EDT

Sun Jul 21, 6:10pm EDT

Sun Jul 21, 5:10pm EDT

Sun Jul 21, 4:10pm EDT

Sun Jul 21, 3:10pm EDT

Sun Jul 21, 2:10pm EDT

Sun Jul 21, 1:10pm EDT

Sun Jul 21, 12:10pm EDT

Sun Jul 21, 11:10am EDT

Sun Jul 21, 10:10am EDT

Sun Jul 21, 9:10am EDT

Sun Jul 21, 8:10am EDT

Sun Jul 21, 7:10am EDT

Sun Jul 21, 6:10am EDT

Sun Jul 21, 5:10am EDT

Sun Jul 21, 4:10am EDT

Sun Jul 21, 3:10am EDT

Sun Jul 21, 2:10am EDT

Sun Jul 21, 1:10am EDT

Sun Jul 21, 12:10am EDT

Sat Jul 20, 11:10pm EDT

Sat Jul 20, 10:10pm EDT

Sat Jul 20, 9:10pm EDT

Sat Jul 20, 8:10pm EDT

Sat Jul 20, 7:10pm EDT

Sat Jul 20, 6:10pm EDT

Sat Jul 20, 5:10pm EDT

Sat Jul 20, 4:10pm EDT

Sat Jul 20, 3:10pm EDT

Sat Jul 20, 2:10pm EDT

Sat Jul 20, 1:10pm EDT

Sat Jul 20, 12:10pm EDT

Sat Jul 20, 11:10am EDT

Sat Jul 20, 10:10am EDT

Sat Jul 20, 9:10am EDT

Sat Jul 20, 8:10am EDT

Sat Jul 20, 7:10am EDT

Sat Jul 20, 6:10am EDT

Sat Jul 20, 5:10am EDT

Sat Jul 20, 4:10am EDT

Sat Jul 20, 3:10am EDT

Sat Jul 20, 2:10am EDT

Sat Jul 20, 1:10am EDT

Sat Jul 20, 12:10am EDT

Fri Jul 19, 11:10pm EDT

Fri Jul 19, 10:10pm EDT

Fri Jul 19, 9:10pm EDT

Fri Jul 19, 8:10pm EDT

Fri Jul 19, 7:10pm EDT

Fri Jul 19, 6:10pm EDT

Fri Jul 19, 5:10pm EDT

Fri Jul 19, 4:10pm EDT

Fri Jul 19, 3:10pm EDT

Fri Jul 19, 2:10pm EDT

Fri Jul 19, 1:10pm EDT

Fri Jul 19, 12:10pm EDT

Fri Jul 19, 11:10am EDT

Fri Jul 19, 10:10am EDT

Fri Jul 19, 9:10am EDT

Fri Jul 19, 8:10am EDT

Fri Jul 19, 7:10am EDT

Fri Jul 19, 6:10am EDT

Fri Jul 19, 5:10am EDT

Fri Jul 19, 4:10am EDT

Fri Jul 19, 3:10am EDT

Fri Jul 19, 2:10am EDT

Fri Jul 19, 1:10am EDT

Fri Jul 19, 12:10am EDT

Thu Jul 18, 11:10pm EDT

Thu Jul 18, 10:10pm EDT

Thu Jul 18, 9:10pm EDT

Thu Jul 18, 8:10pm EDT

Thu Jul 18, 7:10pm EDT

Thu Jul 18, 6:10pm EDT

Thu Jul 18, 5:10pm EDT

Thu Jul 18, 4:10pm EDT

Thu Jul 18, 3:10pm EDT

Thu Jul 18, 2:10pm EDT

Thu Jul 18, 1:10pm EDT

Thu Jul 18, 12:10pm EDT